Location: Unspecified
(41.5000°N, 0.0000°E)
Time: 05:43:26
(UTC+00:00)

Vanguard 3 - Pass Details

Date: 27 June 2019
Orbit: 508 x 3263 km, 33.3° (Epoch: 16 August)

Event Time Altitude Azimuth Distance (km) Brightness Sun altitude
Rises 14:41:37 0° 274° (W) 5,269 11.8 52.4°
Reaches altitude 10° 14:46:20 10° 264° (W) 3,747 11.4 51.5°
Maximum altitude 14:53:25 26° 212° (SSW) 1,965 10.0 50.2°
Drops below altitude 10° 14:58:06 10° 156° (SSE) 2,394 9.6 49.4°
Sets 15:00:26 0° 142° (SE) 3,083 10.0 49.0°
